Change the Weather History Date:

Thursday, January 2, 2014

  Actual Average Record
Temperature  
Mean Temperature 34 °F 44 °F  
Max Temperature 44 °F 56 °F 82 °F (1997)
Min Temperature 24 °F 33 °F 7 °F (1979)
Degree Days  
Heating Degree Days 31 21  
Month to date heating degree days 44 42  
Since 1 July heating degree days 1214 1087  
Cooling Degree Days 0 0  
Month to date cooling degree days 0 0  
Year to date cooling degree days 0 0  
Moisture  
Dew Point 18 °F    
Average Humidity 54    
Maximum Humidity 75    
Minimum Humidity 33    
Precipitation  
Precipitation 0.00 in 0.03 in 0.71 in (1973)
Month to date precipitation 0.00 0.06  
Year to date precipitation 0.00 0.06  
Sea Level Pressure  
Sea Level Pressure 30.44 in    
Wind  
Wind Speed 10 mph (North)    
Max Wind Speed 24 mph    
Max Gust Speed 30 mph    
Visibility 10 miles    
Events      
T = Trace of Precipitation, MM = Missing Value Source: NWS Daily Summary

Daily Weather History Graph

Daily Weather History Graph

Search for Another Location

Airport or City:

Trip Planner

Search our weather history database for the weather conditions in past years. The results will help you decide how hot, cold, wet, or windy it might be!

Date:

Astronomy

Jan. 02, 2014 Rise Set
Actual Time 7:40 AM CST 5:45 PM CST
Civil Twilight 7:13 AM CST 6:12 PM CST
Nautical Twilight 6:42 AM CST 6:42 PM CST
Astronomical Twilight 6:13 AM CST 7:12 PM CST
Moon 8:29 AM CST (1/2) 7:36 PM CST (1/2)
Length of Visible Light 10h 58m
Length of Day
10h 04m
Waxing Crescent, 3% of the Moon is Illuminated
Jan 2
Waxing Crescent
Jan 7
First Quarter
Jan 15
Full
Jan 23
Last Quarter
Jan 30
New

Hourly Weather History & Observations

Time (CST) Temp. Windchill Dew Point Humidity Pressure Visibility Wind Dir Wind Speed Gust Speed Precip Events Conditions
12:52 AM 30.9 °F 21.7 °F 21.9 °F 69% 30.33 in 10.0 mi North 11.5 mph - N/A   Clear
1:52 AM 30.0 °F 17.9 °F 21.0 °F 69% 30.36 in 10.0 mi North 18.4 mph - N/A   Clear
2:52 AM 28.0 °F 16.5 °F 19.9 °F 72% 30.38 in 10.0 mi North 15.0 mph - N/A   Clear
3:52 AM 27.0 °F 14.7 °F 19.0 °F 72% 30.39 in 10.0 mi North 16.1 mph - N/A   Clear
4:52 AM 26.1 °F 14.5 °F 18.0 °F 71% 30.41 in 10.0 mi North 13.8 mph - N/A   Clear
5:52 AM 25.0 °F 12.2 °F 18.0 °F 75% 30.42 in 10.0 mi North 16.1 mph - N/A   Clear
6:52 AM 24.1 °F 11.5 °F 17.1 °F 75% 30.44 in 10.0 mi North 15.0 mph - N/A   Clear
7:52 AM 24.1 °F 11.0 °F 16.0 °F 71% 30.47 in 10.0 mi North 16.1 mph - N/A   Clear
8:52 AM 27.0 °F 16.7 °F 17.1 °F 66% 30.51 in 10.0 mi North 11.5 mph - N/A   Clear
9:52 AM 30.0 °F 19.5 °F 18.0 °F 61% 30.53 in 10.0 mi NNW 13.8 mph - N/A   Clear
10:52 AM 32.0 °F 22.5 °F 17.1 °F 54% 30.54 in 10.0 mi NNW 12.7 mph - N/A   Clear
11:52 AM 35.1 °F 26.4 °F 18.0 °F 50% 30.51 in 10.0 mi North 12.7 mph - N/A   Clear
12:52 PM 37.9 °F 32.1 °F 17.1 °F 43% 30.48 in 10.0 mi North 8.1 mph - N/A   Clear
1:52 PM 41.0 °F 37.1 °F 17.1 °F 38% 30.45 in 10.0 mi NNW 5.8 mph - N/A   Clear
2:52 PM 42.1 °F - 17.1 °F 37% 30.43 in 10.0 mi Calm Calm - N/A   Clear
3:52 PM 43.0 °F 40.3 °F 17.1 °F 35% 30.42 in 10.0 mi North 4.6 mph - N/A   Clear
4:52 PM 44.1 °F - 17.1 °F 34% 30.42 in 10.0 mi Calm Calm - N/A   Clear
5:52 PM 42.1 °F - 17.1 °F 37% 30.42 in 10.0 mi Calm Calm - N/A   Clear
6:52 PM 37.9 °F 35.5 °F 17.1 °F 43% 30.43 in 10.0 mi SSE 3.5 mph - N/A   Clear
7:52 PM 33.1 °F 26.9 °F 17.1 °F 52% 30.43 in 10.0 mi SE 6.9 mph - N/A   Clear
8:52 PM 30.0 °F 22.4 °F 18.0 °F 61% 30.43 in 10.0 mi SSE 8.1 mph - N/A   Clear
9:52 PM 30.0 °F 22.4 °F 18.0 °F 61% 30.42 in 10.0 mi SSE 8.1 mph - N/A   Clear
10:52 PM 28.0 °F 20.8 °F 18.0 °F 66% 30.42 in 10.0 mi South 6.9 mph - N/A   Clear
11:52 PM 28.9 °F 21.9 °F 19.0 °F 67% 30.40 in 10.0 mi SSE 6.9 mph - N/A   Clear